Regional Weather Roundup
Issued by NWS

Home | Current Version | Previous Version | Graphics & Text | Print | Product List | Glossary On
Versions: 1 2 3 4 5 6 7 8 9 10 11 12 13 14 15 16 17 18 19 20 21 22 23 24 25 26 27 28 29 30 31 32 33 34 35 36 37 38 39 40 41 42 43 44 45 46 47 48 49 50
000
ASUS43 KFSD 270302
RWRSD

WEATHER ROUNDUP FOR SOUTH DAKOTA
NATIONAL WEATHER SERVICE SIOUX FALLS SD
1000 PM CDT THU MAY 26 2016

NOTE: "FAIR" INDICATES FEW OR NO CLOUDS BELOW 12,000 FEET WITH NO
SIGNIFICANT WEATHER AND/OR OBSTRUCTIONS TO VISIBILITY.


SDZ001>005-009-010-012>017-270400-
NORTHWEST AND NORTH CENTRAL SOUTH DAKOTA

CITY           SKY/WX    TMP DP  RH WIND       PRES   REMARKS
BUFFALO          N/A     54  42  64 NW10      29.80R
FAITH            N/A     55  42  61 N6        29.83R
MOBRIDGE       CLEAR     61  49  64 N8        29.76S
$$

SDZ012>016-024>037-041>051-057-063-072>074-270400-
SOUTHWEST AND SOUTH CENTRAL SOUTH DAKOTA

CITY           SKY/WX    TMP DP  RH WIND       PRES   REMARKS
RAPID CTY ARPT CLEAR     54  46  74 N9        29.82F
PIERRE         PTCLDY    61  50  67 N7        29.77R
CUSTER         CLEAR     51  42  71 CALM      29.91S
ELLSWORTH AFB  PTCLDY    60  44  55 N6        29.82F
PHILIP         CLOUDY    59  51  75 CALM      29.80R
PINE RIDGE     CLEAR     55  45  68 E6        29.83R
WINNER         MOCLDY    67  57  70 N7        29.80R
$$

SDZ004>011-016>023-039-040-270400-
NORTHEAST SOUTH DAKOTA

CITY           SKY/WX    TMP DP  RH WIND       PRES   REMARKS
ABERDEEN       CLOUDY    64  55  72 S12       29.80R
WATERTOWN      CLOUDY    67  49  52 SE8       29.80R
BROOKINGS      CLOUDY    68  52  56 CALM      29.78F
SISSETON         N/A     67  52  58 W3        29.76S
$$

SDZ017-020-022-023-036>040-048>070-270400-
SOUTHEAST SOUTH DAKOTA

CITY           SKY/WX    TMP DP  RH WIND       PRES   REMARKS
SIOUX FALLS    CLOUDY    68  55  63 E9        29.78F
HURON          CLOUDY    66  57  72 CALM      29.78R
MITCHELL       CLOUDY    66  59  78 SE6       29.77R
YANKTON        CLOUDY    68  55  64 SE13G22   29.75F
$$

ABBREVIATIONS USED IN REMARKS
   TC - TEMPERATURE IN CELSIUS
  WCI - WIND CHILL INDEX
   HX - HEAT INDEX
  VSB - VISIBILITY





USA.gov is the U.S. government's official web portal to all federal, state and local government web resources and services.